Time,TemperatureF,DewpointF,PressureIn,WindDirection,WindDirectionDegrees,WindSpeedMPH,WindSpeedGustMPH,Humidity,HourlyPrecipIn,Conditions,Clouds,dailyrainin,SoftwareType,DateUTC
2013-11-16 00:01:00,40.5,35.5,30.05,SSW,207,4.0,6.0,82,0.00,,CLR,0.00,VWS V13.01,2013-11-16 05:01:00,
2013-11-16 00:03:00,40.5,35.8,30.05,SSW,207,3.0,5.0,83,0.00,,CLR,0.00,VWS V13.01,2013-11-16 05:03:00,
2013-11-16 00:08:00,40.4,35.7,30.05,SSW,207,4.0,5.0,83,0.00,,CLR,0.00,VWS V13.01,2013-11-16 05:08:00,
2013-11-16 00:13:00,40.4,35.7,30.05,SSW,207,4.0,5.0,83,0.00,,CLR,0.00,VWS V13.01,2013-11-16 05:13:00,
2013-11-16 00:18:00,40.4,36.0,30.05,SSW,207,4.0,5.0,84,0.00,,CLR,0.00,VWS V13.01,2013-11-16 05:18:00,
2013-11-16 00:23:00,40.4,35.3,30.06,SSW,213,6.0,6.0,82,0.00,,CLR,0.00,VWS V13.01,2013-11-16 05:23:00,
2013-11-16 00:28:00,40.4,35.3,30.06,SW,215,5.0,7.0,82,0.00,,CLR,0.00,VWS V13.01,2013-11-16 05:28:00,
2013-11-16 00:33:00,40.4,35.3,30.06,SW,215,3.0,5.0,82,0.00,,CLR,0.00,VWS V13.01,2013-11-16 05:33:00,
2013-11-16 00:38:00,40.5,35.8,30.05,SW,217,4.0,6.0,83,0.00,,CLR,0.00,VWS V13.01,2013-11-16 05:38:00,
2013-11-16 00:43:00,40.6,35.8,30.06,SW,217,5.0,7.0,83,0.00,,CLR,0.00,VWS V13.01,2013-11-16 05:43:00,
2013-11-16 00:48:00,40.9,36.1,30.06,SW,214,5.0,7.0,83,0.00,,CLR,0.00,VWS V13.01,2013-11-16 05:48:00,
2013-11-16 00:53:00,40.9,36.1,30.06,SSW,213,4.0,7.0,83,0.00,,CLR,0.00,VWS V13.01,2013-11-16 05:53:00,
2013-11-16 00:58:00,40.9,36.1,30.06,SSW,213,5.0,7.0,83,0.00,,CLR,0.00,VWS V13.01,2013-11-16 05:58:00,
2013-11-16 01:03:00,40.9,36.1,30.05,SSW,210,4.0,7.0,83,0.00,,CLR,0.00,VWS V13.01,2013-11-16 06:03:00,
2013-11-16 01:08:00,40.9,36.1,30.05,SSW,212,5.0,7.0,83,0.00,,CLR,0.00,VWS V13.01,2013-11-16 06:08:00,
2013-11-16 01:13:00,40.9,36.1,30.05,SW,214,5.0,7.0,83,0.00,,CLR,0.00,VWS V13.01,2013-11-16 06:13:00,
2013-11-16 01:18:00,41.0,36.2,30.05,SSW,207,7.0,7.0,83,0.00,,CLR,0.00,VWS V13.01,2013-11-16 06:18:00,
2013-11-16 01:23:00,41.2,36.4,30.05,SSW,205,6.0,7.0,83,0.00,,CLR,0.00,VWS V13.01,2013-11-16 06:23:00,
2013-11-16 01:28:00,41.3,36.2,30.05,SSW,205,6.0,9.0,82,0.00,,CLR,0.00,VWS V13.01,2013-11-16 06:28:00,
2013-11-16 01:33:00,41.4,36.6,30.05,SSW,207,7.0,8.0,83,0.00,,CLR,0.00,VWS V13.01,2013-11-16 06:33:00,
2013-11-16 01:38:00,41.4,36.6,30.05,SSW,203,7.0,8.0,83,0.00,,CLR,0.00,VWS V13.01,2013-11-16 06:38:00,
2013-11-16 01:43:00,41.4,36.6,30.06,SSW,201,7.0,8.0,83,0.00,,CLR,0.00,VWS V13.01,2013-11-16 06:43:00,
2013-11-16 01:48:00,41.4,36.6,30.06,SSW,212,7.0,8.0,83,0.00,,CLR,0.00,VWS V13.01,2013-11-16 06:48:00,
2013-11-16 01:53:00,41.3,36.8,30.06,SW,216,5.0,8.0,84,0.00,,CLR,0.00,VWS V13.01,2013-11-16 06:53:00,
2013-11-16 01:58:00,41.2,36.7,30.06,SW,221,6.0,8.0,84,0.00,,CLR,0.00,VWS V13.01,2013-11-16 06:58:00,
2013-11-16 02:03:00,41.1,36.6,30.06,SSW,209,6.0,8.0,84,0.00,,CLR,0.00,VWS V13.01,2013-11-16 07:03:00,
2013-11-16 02:08:00,41.0,36.5,30.06,SSW,209,5.0,7.0,84,0.00,,CLR,0.00,VWS V13.01,2013-11-16 07:08:00,
2013-11-16 02:13:00,40.9,36.5,30.06,SW,218,6.0,7.0,84,0.00,,CLR,0.00,VWS V13.01,2013-11-16 07:13:00,
2013-11-16 02:18:00,40.9,36.5,30.06,SW,219,5.0,7.0,84,0.00,,CLR,0.00,VWS V13.01,2013-11-16 07:18:00,
2013-11-16 02:23:00,41.0,36.5,30.06,SSW,210,6.0,7.0,84,0.00,,CLR,0.00,VWS V13.01,2013-11-16 07:23:00,
2013-11-16 02:28:00,41.0,36.5,30.06,SW,216,6.0,7.0,84,0.00,,CLR,0.00,VWS V13.01,2013-11-16 07:28:00,
2013-11-16 02:33:00,41.0,36.5,30.06,SW,218,5.0,7.0,84,0.00,,CLR,0.00,VWS V13.01,2013-11-16 07:33:00,
2013-11-16 02:38:00,40.9,36.5,30.06,SW,217,4.0,6.0,84,0.00,,CLR,0.00,VWS V13.01,2013-11-16 07:38:00,
2013-11-16 02:43:00,40.9,36.5,30.06,SSW,207,4.0,6.0,84,0.00,,CLR,0.00,VWS V13.01,2013-11-16 07:43:00,
2013-11-16 02:48:00,40.9,36.5,30.06,SW,220,4.0,6.0,84,0.00,,CLR,0.00,VWS V13.01,2013-11-16 07:48:00,
2013-11-16 02:53:00,40.9,36.5,30.06,SW,219,5.0,6.0,84,0.00,,CLR,0.00,VWS V13.01,2013-11-16 07:53:00,
2013-11-16 02:58:00,40.9,36.8,30.06,SW,215,5.0,6.0,85,0.00,,CLR,0.00,VWS V13.01,2013-11-16 07:58:00,
2013-11-16 03:03:00,41.0,37.1,30.06,SSW,213,7.0,7.0,86,0.00,,CLR,0.00,VWS V13.01,2013-11-16 08:03:00,
2013-11-16 03:08:00,41.0,37.1,30.06,SSW,211,5.0,7.0,86,0.00,,CLR,0.00,VWS V13.01,2013-11-16 08:08:00,
2013-11-16 03:13:00,41.1,37.2,30.06,SW,214,5.0,7.0,86,0.00,,CLR,0.00,VWS V13.01,2013-11-16 08:13:00,
2013-11-16 03:18:00,41.1,37.2,30.06,SW,221,4.0,6.0,86,0.00,,CLR,0.00,VWS V13.01,2013-11-16 08:18:00,
2013-11-16 03:23:00,40.9,37.0,30.06,SW,225,5.0,6.0,86,0.00,,CLR,0.00,VWS V13.01,2013-11-16 08:23:00,
2013-11-16 03:28:00,40.8,36.9,30.06,SW,217,3.0,6.0,86,0.00,,CLR,0.00,VWS V13.01,2013-11-16 08:28:00,
2013-11-16 03:33:00,40.8,37.2,30.06,SSW,203,4.0,7.0,87,0.00,,CLR,0.00,VWS V13.01,2013-11-16 08:33:00,
2013-11-16 03:38:00,40.8,37.5,30.06,SSW,198,4.0,7.0,88,0.00,,CLR,0.00,VWS V13.01,2013-11-16 08:38:00,
2013-11-16 03:43:00,41.0,37.7,30.05,South,186,7.0,7.0,88,0.00,,CLR,0.00,VWS V13.01,2013-11-16 08:43:00,
2013-11-16 03:48:00,41.1,37.8,30.05,South,189,6.0,8.0,88,0.00,,CLR,0.00,VWS V13.01,2013-11-16 08:48:00,
2013-11-16 03:53:00,41.3,37.4,30.05,South,188,8.0,9.0,86,0.00,,CLR,0.00,VWS V13.01,2013-11-16 08:53:00,
2013-11-16 03:58:00,41.4,37.2,30.06,SSW,194,7.0,10.0,85,0.00,,CLR,0.00,VWS V13.01,2013-11-16 08:58:00,
2013-11-16 04:03:00,41.5,37.3,30.06,SSW,192,7.0,11.0,85,0.00,,CLR,0.00,VWS V13.01,2013-11-16 09:03:00,
2013-11-16 04:08:00,41.6,37.4,30.06,SSW,200,8.0,12.0,85,0.00,,CLR,0.00,VWS V13.01,2013-11-16 09:08:00,
2013-11-16 04:13:00,41.6,37.4,30.06,SSW,192,7.0,12.0,85,0.00,,CLR,0.00,VWS V13.01,2013-11-16 09:13:00,
2013-11-16 04:18:00,41.5,37.3,30.07,SSW,198,11.0,13.0,85,0.00,,CLR,0.00,VWS V13.01,2013-11-16 09:18:00,
2013-11-16 04:23:00,41.5,36.4,30.07,SSW,196,8.0,13.0,82,0.00,,CLR,0.00,VWS V13.01,2013-11-16 09:23:00,
2013-11-16 04:28:00,41.5,36.7,30.07,SSW,209,8.0,11.0,83,0.00,,CLR,0.00,VWS V13.01,2013-11-16 09:28:00,
2013-11-16 04:33:00,41.5,36.7,30.08,SSW,206,7.0,11.0,83,0.00,,CLR,0.00,VWS V13.01,2013-11-16 09:33:00,
2013-11-16 04:38:00,41.5,37.0,30.07,SSW,204,6.0,10.0,84,0.00,,CLR,0.00,VWS V13.01,2013-11-16 09:38:00,
2013-11-16 04:43:00,41.3,36.8,30.07,SSW,202,7.0,10.0,84,0.00,,CLR,0.00,VWS V13.01,2013-11-16 09:43:00,
2013-11-16 04:48:00,41.2,37.0,30.07,SSW,192,8.0,12.0,85,0.00,,CLR,0.00,VWS V13.01,2013-11-16 09:48:00,
2013-11-16 04:53:00,41.3,37.1,30.08,South,190,8.0,12.0,85,0.00,,CLR,0.00,VWS V13.01,2013-11-16 09:53:00,
2013-11-16 04:58:00,41.1,36.9,30.08,SSW,205,9.0,12.0,85,0.00,,CLR,0.00,VWS V13.01,2013-11-16 09:58:00,
2013-11-16 05:04:00,41.0,36.8,30.08,SSW,196,12.0,13.0,85,0.00,,CLR,0.00,VWS V13.01,2013-11-16 10:04:00,
2013-11-16 05:09:00,41.0,36.5,30.09,SSW,192,8.0,13.0,84,0.00,,CLR,0.00,VWS V13.01,2013-11-16 10:09:00,
2013-11-16 05:14:00,40.9,36.8,30.09,SSW,197,10.0,12.0,85,0.00,,CLR,0.00,VWS V13.01,2013-11-16 10:14:00,
2013-11-16 05:19:00,40.7,36.8,30.09,SSW,192,8.0,11.0,86,0.00,,CLR,0.00,VWS V13.01,2013-11-16 10:19:00,
2013-11-16 05:24:00,40.7,37.1,30.09,SSW,196,7.0,10.0,87,0.00,,CLR,0.00,VWS V13.01,2013-11-16 10:24:00,
2013-11-16 05:29:00,40.7,37.1,30.09,SSW,200,4.0,12.0,87,0.00,,CLR,0.00,VWS V13.01,2013-11-16 10:29:00,
2013-11-16 05:34:00,40.5,36.9,30.09,SW,218,6.0,10.0,87,0.00,,CLR,0.00,VWS V13.01,2013-11-16 10:34:00,
2013-11-16 05:39:00,40.2,36.7,30.08,SSW,208,5.0,6.0,87,0.00,,CLR,0.00,VWS V13.01,2013-11-16 10:39:00,
2013-11-16 05:44:00,40.2,36.9,30.08,South,184,10.0,10.0,88,0.00,,CLR,0.00,VWS V13.01,2013-11-16 10:44:00,
2013-11-16 05:49:00,40.5,37.2,30.08,SSW,193,7.0,11.0,88,0.00,,CLR,0.00,VWS V13.01,2013-11-16 10:49:00,
2013-11-16 05:54:00,40.7,37.1,30.08,SSW,196,9.0,13.0,87,0.00,,CLR,0.00,VWS V13.01,2013-11-16 10:54:00,
2013-11-16 05:59:00,40.7,37.1,30.08,SSW,199,10.0,13.0,87,0.00,,CLR,0.00,VWS V13.01,2013-11-16 10:59:00,
2013-11-16 06:04:00,40.8,36.9,30.09,SSW,202,10.0,12.0,86,0.00,,CLR,0.00,VWS V13.01,2013-11-16 11:04:00,
2013-11-16 06:09:00,40.7,37.1,30.08,SSW,202,7.0,11.0,87,0.00,,CLR,0.00,VWS V13.01,2013-11-16 11:09:00,
2013-11-16 06:14:00,40.6,37.3,30.08,SSW,206,7.0,11.0,88,0.00,,CLR,0.00,VWS V13.01,2013-11-16 11:14:00,
2013-11-16 06:19:00,40.3,37.0,30.09,SW,215,5.0,8.0,88,0.00,,CLR,0.00,VWS V13.01,2013-11-16 11:19:00,
2013-11-16 06:24:00,40.2,36.9,30.09,SW,217,6.0,7.0,88,0.00,,CLR,0.00,VWS V13.01,2013-11-16 11:24:00,
2013-11-16 06:29:00,40.2,36.7,30.09,SSW,210,7.0,7.0,87,0.00,,CLR,0.00,VWS V13.01,2013-11-16 11:29:00,
2013-11-16 06:34:00,40.4,36.5,30.09,SW,215,8.0,9.0,86,0.00,,CLR,0.00,VWS V13.01,2013-11-16 11:34:00,
2013-11-16 06:39:00,40.5,36.3,30.08,SSW,211,7.0,8.0,85,0.00,,CLR,0.00,VWS V13.01,2013-11-16 11:39:00,
2013-11-16 06:44:00,40.6,36.8,30.08,SSW,210,5.0,8.0,86,0.00,,CLR,0.00,VWS V13.01,2013-11-16 11:44:00,
2013-11-16 06:49:00,40.6,36.8,30.09,SSW,200,7.0,7.0,86,0.00,,CLR,0.00,VWS V13.01,2013-11-16 11:49:00,
2013-11-16 06:54:00,40.8,36.7,30.08,SSW,199,7.0,9.0,85,0.00,,CLR,0.00,VWS V13.01,2013-11-16 11:54:00,
2013-11-16 06:59:00,40.9,36.8,30.08,SSW,203,6.0,9.0,85,0.00,,CLR,0.00,VWS V13.01,2013-11-16 11:59:00,
2013-11-16 07:04:00,40.9,36.5,30.08,SSW,194,10.0,10.0,84,0.00,,CLR,0.00,VWS V13.01,2013-11-16 12:04:00,
2013-11-16 07:09:00,41.0,36.8,30.08,SSW,207,7.0,10.0,85,0.00,,CLR,0.00,VWS V13.01,2013-11-16 12:09:00,
2013-11-16 07:14:00,41.0,37.1,30.08,SSW,204,7.0,9.0,86,0.00,,CLR,0.00,VWS V13.01,2013-11-16 12:14:00,
2013-11-16 07:19:00,41.0,37.1,30.08,SSW,197,7.0,10.0,86,0.00,,CLR,0.00,VWS V13.01,2013-11-16 12:19:00,
2013-11-16 07:24:00,41.0,37.1,30.08,SSW,200,7.0,11.0,86,0.00,,CLR,0.00,VWS V13.01,2013-11-16 12:24:00,
2013-11-16 07:29:00,40.9,37.3,30.08,SSW,201,7.0,7.0,87,0.00,,CLR,0.00,VWS V13.01,2013-11-16 12:29:00,
2013-11-16 07:34:00,41.1,37.2,30.08,SSW,197,10.0,13.0,86,0.00,,CLR,0.00,VWS V13.01,2013-11-16 12:34:00,
2013-11-16 07:39:00,41.3,37.4,30.08,South,182,13.0,14.0,86,0.00,,CLR,0.00,VWS V13.01,2013-11-16 12:39:00,
2013-11-16 07:44:00,41.5,37.3,30.08,SSW,195,10.0,13.0,85,0.00,,CLR,0.00,VWS V13.01,2013-11-16 12:44:00,
2013-11-16 07:49:00,41.5,37.3,30.08,South,190,10.0,13.0,85,0.00,,CLR,0.00,VWS V13.01,2013-11-16 12:49:00,
2013-11-16 07:54:00,41.6,37.4,30.08,SSW,196,8.0,12.0,85,0.00,,CLR,0.00,VWS V13.01,2013-11-16 12:54:00,
2013-11-16 07:59:00,41.6,37.7,30.08,South,184,8.0,11.0,86,0.00,,CLR,0.00,VWS V13.01,2013-11-16 12:59:00,
2013-11-16 08:04:00,41.8,38.2,30.08,South,180,9.0,13.0,87,0.00,,CLR,0.00,VWS V13.01,2013-11-16 13:04:00,
2013-11-16 08:09:00,41.8,38.2,30.08,South,175,12.0,13.0,87,0.00,,CLR,0.00,VWS V13.01,2013-11-16 13:09:00,
2013-11-16 08:14:00,41.7,38.1,30.08,South,171,10.0,12.0,87,0.00,,CLR,0.00,VWS V13.01,2013-11-16 13:14:00,
2013-11-16 08:19:00,41.6,38.3,30.08,SSE,155,7.0,9.0,88,0.00,,CLR,0.00,VWS V13.01,2013-11-16 13:19:00,
2013-11-16 08:24:00,41.4,38.1,30.08,SSE,157,5.0,10.0,88,0.00,,CLR,0.00,VWS V13.01,2013-11-16 13:24:00,
2013-11-16 08:29:00,41.4,38.1,30.08,South,180,8.0,10.0,88,0.00,,CLR,0.00,VWS V13.01,2013-11-16 13:29:00,
2013-11-16 08:34:00,41.3,37.7,30.08,South,180,10.0,12.0,87,0.00,,CLR,0.00,VWS V13.01,2013-11-16 13:34:00,
2013-11-16 08:39:00,41.3,38.0,30.08,South,178,10.0,11.0,88,0.00,,CLR,0.00,VWS V13.01,2013-11-16 13:39:00,
2013-11-16 08:44:00,41.3,37.7,30.07,South,180,11.0,13.0,87,0.00,,CLR,0.00,VWS V13.01,2013-11-16 13:44:00,
2013-11-16 08:49:00,41.4,38.1,30.07,South,173,10.0,12.0,88,0.00,,CLR,0.00,VWS V13.01,2013-11-16 13:49:00,
2013-11-16 08:54:00,41.5,38.2,30.07,South,169,7.0,11.0,88,0.00,,CLR,0.00,VWS V13.01,2013-11-16 13:54:00,
2013-11-16 08:59:00,41.6,38.3,30.08,South,178,9.0,13.0,88,0.00,,CLR,0.00,VWS V13.01,2013-11-16 13:59:00,
2013-11-16 09:04:00,41.6,38.3,30.07,South,170,6.0,13.0,88,0.00,,CLR,0.00,VWS V13.01,2013-11-16 14:04:00,
2013-11-16 09:09:00,41.6,38.3,30.07,South,169,11.0,13.0,88,0.00,,CLR,0.00,VWS V13.01,2013-11-16 14:09:00,
2013-11-16 09:14:00,41.5,38.2,30.07,South,169,11.0,14.0,88,0.00,,CLR,0.00,VWS V13.01,2013-11-16 14:14:00,
2013-11-16 09:19:00,41.5,38.2,30.07,South,173,9.0,14.0,88,0.00,,CLR,0.00,VWS V13.01,2013-11-16 14:19:00,
2013-11-16 09:24:00,41.5,38.5,30.07,South,170,10.0,14.0,89,0.00,,CLR,0.00,VWS V13.01,2013-11-16 14:24:00,
2013-11-16 09:29:00,41.5,38.2,30.07,South,170,16.0,16.0,88,0.00,,CLR,0.00,VWS V13.01,2013-11-16 14:29:00,
2013-11-16 09:34:00,41.4,38.1,30.06,South,170,11.0,15.0,88,0.00,,CLR,0.00,VWS V13.01,2013-11-16 14:34:00,
2013-11-16 09:39:00,41.5,38.5,30.07,SSE,167,12.0,13.0,89,0.00,,CLR,0.00,VWS V13.01,2013-11-16 14:39:00,
2013-11-16 09:45:00,41.5,38.5,30.07,SSE,160,10.0,14.0,89,0.00,,CLR,0.00,VWS V13.01,2013-11-16 14:45:00,
2013-11-16 09:50:00,41.6,38.6,30.06,SSE,168,12.0,13.0,89,0.00,,CLR,0.00,VWS V13.01,2013-11-16 14:50:00,
2013-11-16 09:55:00,41.6,38.6,30.06,South,182,13.0,13.0,89,0.00,,CLR,0.00,VWS V13.01,2013-11-16 14:55:00,
2013-11-16 10:00:00,41.5,38.5,30.07,South,174,11.0,15.0,89,0.00,,CLR,0.00,VWS V13.01,2013-11-16 15:00:00,
2013-11-16 10:05:00,41.3,38.3,30.07,South,170,10.0,17.0,89,0.00,,CLR,0.00,VWS V13.01,2013-11-16 15:05:00,
2013-11-16 10:10:00,41.3,38.3,30.07,South,182,11.0,14.0,89,0.00,,CLR,0.00,VWS V13.01,2013-11-16 15:10:00,
2013-11-16 10:15:00,41.3,38.6,30.05,SE,141,10.0,13.0,90,0.00,,CLR,0.00,VWS V13.01,2013-11-16 15:15:00,
2013-11-16 10:20:00,41.3,38.6,30.06,South,182,11.0,14.0,90,0.00,,CLR,0.00,VWS V13.01,2013-11-16 15:20:00,
2013-11-16 10:25:00,41.3,38.6,30.06,South,177,12.0,14.0,90,0.00,,CLR,0.00,VWS V13.01,2013-11-16 15:25:00,
2013-11-16 10:30:00,41.4,38.7,30.07,South,184,10.0,15.0,90,0.00,,CLR,0.00,VWS V13.01,2013-11-16 15:30:00,
2013-11-16 10:35:00,41.4,39.0,30.07,South,179,11.0,13.0,91,0.00,,CLR,0.00,VWS V13.01,2013-11-16 15:35:00,
2013-11-16 10:40:00,41.4,39.0,30.07,SSE,167,12.0,14.0,91,0.00,,CLR,0.00,VWS V13.01,2013-11-16 15:40:00,
2013-11-16 10:45:00,41.4,39.0,30.06,SSE,159,10.0,12.0,91,0.00,,CLR,0.00,VWS V13.01,2013-11-16 15:45:00,
2013-11-16 10:50:00,41.4,39.2,30.06,SSE,159,10.0,13.0,92,0.00,,CLR,0.00,VWS V13.01,2013-11-16 15:50:00,
2013-11-16 10:55:00,41.6,39.5,30.06,SSE,161,7.0,12.0,92,0.00,,CLR,0.00,VWS V13.01,2013-11-16 15:55:00,
2013-11-16 11:00:00,41.7,39.5,30.05,SSE,163,7.0,10.0,92,0.00,,CLR,0.00,VWS V13.01,2013-11-16 16:00:00,
2013-11-16 11:05:00,41.9,39.8,30.05,South,179,10.0,12.0,92,0.00,,CLR,0.00,VWS V13.01,2013-11-16 16:05:00,
2013-11-16 11:10:00,42.1,40.0,30.05,SSE,158,6.0,11.0,92,0.00,,CLR,0.00,VWS V13.01,2013-11-16 16:10:00,
2013-11-16 11:15:00,42.1,40.2,30.05,South,178,9.0,10.0,93,0.00,,CLR,0.00,VWS V13.01,2013-11-16 16:15:00,
2013-11-16 11:20:00,42.2,40.3,30.04,South,172,7.0,11.0,93,0.00,,CLR,0.00,VWS V13.01,2013-11-16 16:20:00,
2013-11-16 11:25:00,42.3,40.4,30.03,SSE,149,7.0,9.0,93,0.00,,CLR,0.00,VWS V13.01,2013-11-16 16:25:00,
2013-11-16 11:30:00,42.4,40.5,30.03,SSE,155,6.0,8.0,93,0.00,,CLR,0.00,VWS V13.01,2013-11-16 16:30:00,
2013-11-16 11:35:00,42.4,40.5,30.03,SSE,163,5.0,8.0,93,0.00,,CLR,0.00,VWS V13.01,2013-11-16 16:35:00,
2013-11-16 11:40:00,42.4,40.5,30.03,SSE,165,5.0,8.0,93,0.00,,CLR,0.00,VWS V13.01,2013-11-16 16:40:00,
2013-11-16 11:45:00,42.4,40.5,30.03,South,170,8.0,10.0,93,0.00,,CLR,0.00,VWS V13.01,2013-11-16 16:45:00,
2013-11-16 11:50:00,42.5,40.6,30.03,SSE,163,7.0,9.0,93,0.00,,CLR,0.00,VWS V13.01,2013-11-16 16:50:00,
2013-11-16 11:55:00,42.6,40.7,30.02,South,171,7.0,9.0,93,0.00,,CLR,0.00,VWS V13.01,2013-11-16 16:55:00,
2013-11-16 12:00:00,42.7,40.8,30.02,SSE,166,8.0,11.0,93,0.00,,CLR,0.00,VWS V13.01,2013-11-16 17:00:00,
2013-11-16 12:05:00,42.6,40.7,30.02,South,181,7.0,11.0,93,0.00,,CLR,0.00,VWS V13.01,2013-11-16 17:05:00,
2013-11-16 12:10:00,42.6,40.7,30.02,South,171,7.0,9.0,93,0.00,,CLR,0.00,VWS V13.01,2013-11-16 17:10:00,
2013-11-16 12:15:00,42.6,40.7,30.01,SSE,162,4.0,7.0,93,0.00,,CLR,0.00,VWS V13.01,2013-11-16 17:15:00,
2013-11-16 12:20:00,42.5,40.9,30.00,South,187,4.0,5.0,94,0.00,,CLR,0.00,VWS V13.01,2013-11-16 17:20:00,
2013-11-16 12:25:00,42.5,40.9,30.00,South,185,5.0,8.0,94,0.00,,CLR,0.00,VWS V13.01,2013-11-16 17:25:00,
2013-11-16 12:30:00,42.5,40.9,30.00,South,178,7.0,9.0,94,0.00,,CLR,0.00,VWS V13.01,2013-11-16 17:30:00,
2013-11-16 12:35:00,42.5,40.9,29.99,South,169,4.0,6.0,94,0.00,,CLR,0.00,VWS V13.01,2013-11-16 17:35:00,
2013-11-16 12:40:00,42.5,40.9,29.99,South,169,4.0,5.0,94,0.00,,CLR,0.00,VWS V13.01,2013-11-16 17:40:00,
2013-11-16 12:45:00,42.5,40.9,29.98,ESE,115,7.0,9.0,94,0.00,,CLR,0.00,VWS V13.01,2013-11-16 17:45:00,
2013-11-16 12:50:00,42.8,41.5,29.99,SSE,154,5.0,9.0,95,0.00,,CLR,0.00,VWS V13.01,2013-11-16 17:50:00,
2013-11-16 12:55:00,42.9,41.3,29.99,SSE,160,7.0,8.0,94,0.00,,CLR,0.00,VWS V13.01,2013-11-16 17:55:00,
2013-11-16 13:01:00,43.3,41.7,29.98,SSE,148,8.0,9.0,94,0.00,,BKN040,0.00,VWS V13.01,2013-11-16 18:01:00,
2013-11-16 13:06:00,43.4,41.8,29.98,SSE,159,7.0,10.0,94,0.00,,BKN040,0.00,VWS V13.01,2013-11-16 18:06:00,
2013-11-16 13:11:00,43.4,41.5,29.98,SSE,153,7.0,8.0,93,0.00,,BKN040,0.00,VWS V13.01,2013-11-16 18:11:00,
2013-11-16 13:16:00,43.4,41.5,29.97,SE,145,6.0,8.0,93,0.00,,BKN040,0.00,VWS V13.01,2013-11-16 18:16:00,
2013-11-16 13:21:00,43.3,41.4,29.97,SE,139,6.0,8.0,93,0.00,,BKN040,0.00,VWS V13.01,2013-11-16 18:21:00,
2013-11-16 13:26:00,43.2,41.3,29.97,SE,142,6.0,8.0,93,0.00,,BKN040,0.00,VWS V13.01,2013-11-16 18:26:00,
2013-11-16 13:31:00,43.1,41.2,29.96,SE,141,5.0,7.0,93,0.00,,BKN040,0.00,VWS V13.01,2013-11-16 18:31:00,
2013-11-16 13:36:00,43.1,41.5,29.96,SE,141,6.0,6.0,94,0.00,,BKN040,0.00,VWS V13.01,2013-11-16 18:36:00,
2013-11-16 13:41:00,43.4,41.8,29.96,SE,142,6.0,7.0,94,0.00,,BKN040,0.00,VWS V13.01,2013-11-16 18:41:00,
2013-11-16 13:46:00,43.5,41.9,29.96,SE,146,7.0,7.0,94,0.00,,BKN040,0.00,VWS V13.01,2013-11-16 18:46:00,
2013-11-16 13:51:00,43.6,41.7,29.95,SE,144,7.0,8.0,93,0.00,,BKN040,0.00,VWS V13.01,2013-11-16 18:51:00,
2013-11-16 13:56:00,43.6,41.7,29.95,SSE,148,6.0,7.0,93,0.00,,BKN040,0.00,VWS V13.01,2013-11-16 18:56:00,
2013-11-16 14:01:00,43.6,41.7,29.95,SE,138,6.0,8.0,93,0.00,,BKN050,0.00,VWS V13.01,2013-11-16 19:01:00,
2013-11-16 14:06:00,43.5,41.6,29.94,SE,146,7.0,8.0,93,0.00,,BKN050,0.00,VWS V13.01,2013-11-16 19:06:00,
2013-11-16 14:11:00,43.6,41.7,29.94,SE,138,8.0,9.0,93,0.00,,BKN050,0.00,VWS V13.01,2013-11-16 19:11:00,
2013-11-16 14:16:00,43.7,41.8,29.94,SE,137,8.0,9.0,93,0.00,,BKN050,0.00,VWS V13.01,2013-11-16 19:16:00,
2013-11-16 14:21:00,43.7,41.8,29.93,SE,142,7.0,9.0,93,0.00,,BKN050,0.00,VWS V13.01,2013-11-16 19:21:00,
2013-11-16 14:26:00,43.7,41.8,29.94,SE,143,7.0,8.0,93,0.00,,BKN050,0.00,VWS V13.01,2013-11-16 19:26:00,
2013-11-16 14:31:00,43.7,41.8,29.94,SE,146,6.0,8.0,93,0.00,,BKN050,0.00,VWS V13.01,2013-11-16 19:31:00,
2013-11-16 14:36:00,43.8,41.9,29.93,SE,142,7.0,7.0,93,0.00,,BKN050,0.00,VWS V13.01,2013-11-16 19:36:00,
2013-11-16 14:41:00,43.8,41.9,29.93,SE,136,7.0,9.0,93,0.00,,BKN050,0.00,VWS V13.01,2013-11-16 19:41:00,
2013-11-16 14:46:00,43.9,42.0,29.92,SE,138,6.0,8.0,93,0.00,,BKN050,0.00,VWS V13.01,2013-11-16 19:46:00,
2013-11-16 14:51:00,43.9,42.0,29.92,SE,137,8.0,8.0,93,0.00,,BKN050,0.00,VWS V13.01,2013-11-16 19:51:00,
2013-11-16 14:56:00,44.0,42.1,29.91,SE,137,7.0,8.0,93,0.00,,BKN050,0.00,VWS V13.01,2013-11-16 19:56:00,
2013-11-16 15:01:00,44.3,42.4,29.91,SE,137,8.0,9.0,93,0.00,,SCT039,0.00,VWS V13.01,2013-11-16 20:01:00,
2013-11-16 15:06:00,44.3,42.4,29.91,SSE,149,10.0,11.0,93,0.00,,SCT039,0.00,VWS V13.01,2013-11-16 20:06:00,
2013-11-16 15:11:00,44.5,42.6,29.91,SSE,148,9.0,11.0,93,0.00,,SCT039,0.00,VWS V13.01,2013-11-16 20:11:00,
2013-11-16 15:16:00,44.6,42.7,29.90,SSE,153,9.0,11.0,93,0.00,,SCT039,0.00,VWS V13.01,2013-11-16 20:16:00,
2013-11-16 15:21:00,44.9,43.0,29.90,SE,144,8.0,11.0,93,0.00,,SCT039,0.00,VWS V13.01,2013-11-16 20:21:00,
2013-11-16 15:26:00,44.7,42.8,29.89,SE,139,9.0,10.0,93,0.00,,SCT039,0.00,VWS V13.01,2013-11-16 20:26:00,
2013-11-16 15:31:00,44.7,42.5,29.90,SE,137,10.0,10.0,92,0.00,,SCT039,0.00,VWS V13.01,2013-11-16 20:31:00,
2013-11-16 15:36:00,44.6,42.7,29.89,SE,131,8.0,10.0,93,0.00,,SCT039,0.00,VWS V13.01,2013-11-16 20:36:00,
2013-11-16 15:41:00,44.6,42.7,29.89,SE,132,7.0,10.0,93,0.00,,SCT039,0.00,VWS V13.01,2013-11-16 20:41:00,
2013-11-16 15:46:00,44.6,42.7,29.89,SE,139,8.0,10.0,93,0.00,,SCT039,0.00,VWS V13.01,2013-11-16 20:46:00,
2013-11-16 15:51:00,44.6,42.7,29.89,SE,141,9.0,9.0,93,0.00,,SCT039,0.00,VWS V13.01,2013-11-16 20:51:00,
2013-11-16 15:56:00,44.6,42.7,29.89,SE,143,5.0,9.0,93,0.00,,SCT039,0.00,VWS V13.01,2013-11-16 20:56:00,
2013-11-16 16:01:00,44.5,42.6,29.89,SE,142,6.0,7.0,93,0.00,,SCT037,0.00,VWS V13.01,2013-11-16 21:01:00,
2013-11-16 16:06:00,44.5,42.6,29.89,SSE,153,6.0,7.0,93,0.00,,SCT037,0.00,VWS V13.01,2013-11-16 21:06:00,
2013-11-16 16:11:00,44.7,43.1,29.89,SSE,155,7.0,8.0,94,0.00,,SCT037,0.00,VWS V13.01,2013-11-16 21:11:00,
2013-11-16 16:16:00,44.9,43.0,29.89,SSE,147,8.0,9.0,93,0.00,,SCT037,0.00,VWS V13.01,2013-11-16 21:16:00,
2013-11-16 16:21:00,45.0,43.1,29.89,SE,139,9.0,11.0,93,0.00,,SCT037,0.00,VWS V13.01,2013-11-16 21:21:00,
2013-11-16 16:26:00,44.9,43.0,29.88,SE,139,8.0,10.0,93,0.00,,SCT037,0.00,VWS V13.01,2013-11-16 21:26:00,
2013-11-16 16:31:00,44.7,42.8,29.88,SE,137,6.0,8.0,93,0.00,,SCT037,0.00,VWS V13.01,2013-11-16 21:31:00,
2013-11-16 16:36:00,44.6,43.0,29.88,SE,138,6.0,8.0,94,0.00,,SCT037,0.00,VWS V13.01,2013-11-16 21:36:00,
2013-11-16 16:41:00,44.6,43.0,29.88,SSE,147,7.0,8.0,94,0.00,,SCT037,0.00,VWS V13.01,2013-11-16 21:41:00,
2013-11-16 16:46:00,44.6,43.0,29.87,SSE,150,7.0,8.0,94,0.00,,SCT037,0.00,VWS V13.01,2013-11-16 21:46:00,
2013-11-16 16:51:00,44.7,43.1,29.87,SSE,150,7.0,7.0,94,0.00,,SCT037,0.00,VWS V13.01,2013-11-16 21:51:00,
2013-11-16 16:56:00,44.8,43.2,29.87,SSE,153,6.0,8.0,94,0.00,,SCT037,0.00,VWS V13.01,2013-11-16 21:56:00,
2013-11-16 17:01:00,44.9,43.3,29.88,SSE,165,4.0,7.0,94,0.00,,CLR,0.00,VWS V13.01,2013-11-16 22:01:00,
2013-11-16 17:06:00,44.9,43.3,29.87,SSE,162,5.0,7.0,94,0.00,,CLR,0.00,VWS V13.01,2013-11-16 22:06:00,
2013-11-16 17:11:00,45.2,43.6,29.87,South,169,7.0,8.0,94,0.00,,CLR,0.00,VWS V13.01,2013-11-16 22:11:00,
2013-11-16 17:16:00,45.4,43.8,29.87,South,169,7.0,9.0,94,0.00,,CLR,0.00,VWS V13.01,2013-11-16 22:16:00,
2013-11-16 17:21:00,45.3,43.4,29.87,SSE,159,5.0,8.0,93,0.00,,CLR,0.00,VWS V13.01,2013-11-16 22:21:00,
2013-11-16 17:26:00,45.2,43.3,29.87,SSE,161,7.0,9.0,93,0.00,,CLR,0.00,VWS V13.01,2013-11-16 22:26:00,
2013-11-16 17:31:00,45.2,43.3,29.87,South,176,7.0,7.0,93,0.00,,CLR,0.00,VWS V13.01,2013-11-16 22:31:00,
2013-11-16 17:36:00,45.3,43.4,29.87,South,171,4.0,7.0,93,0.00,,CLR,0.00,VWS V13.01,2013-11-16 22:36:00,
2013-11-16 17:41:00,45.4,43.5,29.87,SSE,167,6.0,9.0,93,0.00,,CLR,0.00,VWS V13.01,2013-11-16 22:41:00,
2013-11-16 17:46:00,45.5,43.6,29.87,SSE,162,5.0,9.0,93,0.00,,CLR,0.00,VWS V13.01,2013-11-16 22:46:00,
2013-11-16 17:51:00,45.5,43.6,29.86,SSE,150,7.0,8.0,93,0.00,,CLR,0.00,VWS V13.01,2013-11-16 22:51:00,
2013-11-16 17:57:00,45.6,43.7,29.86,SSE,153,7.0,10.0,93,0.00,,CLR,0.00,VWS V13.01,2013-11-16 22:57:00,
2013-11-16 18:02:00,45.4,43.5,29.86,SSE,152,7.0,9.0,93,0.00,,BKN023,0.00,VWS V13.01,2013-11-16 23:02:00,
2013-11-16 18:07:00,45.4,43.5,29.86,South,171,8.0,10.0,93,0.00,,BKN023,0.00,VWS V13.01,2013-11-16 23:07:00,
2013-11-16 18:12:00,45.5,43.6,29.86,SSE,151,9.0,10.0,93,0.00,,BKN023,0.00,VWS V13.01,2013-11-16 23:12:00,
2013-11-16 18:17:00,45.6,43.7,29.85,SSE,152,10.0,10.0,93,0.00,,BKN023,0.00,VWS V13.01,2013-11-16 23:17:00,
2013-11-16 18:22:00,45.6,43.7,29.86,SSE,159,8.0,11.0,93,0.00,,BKN023,0.00,VWS V13.01,2013-11-16 23:22:00,
2013-11-16 18:27:00,45.5,43.6,29.85,SSE,162,8.0,9.0,93,0.00,,BKN023,0.00,VWS V13.01,2013-11-16 23:27:00,
2013-11-16 18:32:00,45.4,43.5,29.86,South,176,7.0,8.0,93,0.00,,BKN023,0.00,VWS V13.01,2013-11-16 23:32:00,
2013-11-16 18:37:00,45.2,43.3,29.86,South,181,5.0,9.0,93,0.00,,BKN023,0.00,VWS V13.01,2013-11-16 23:37:00,
2013-11-16 18:42:00,45.1,43.2,29.86,South,183,5.0,7.0,93,0.00,,BKN023,0.00,VWS V13.01,2013-11-16 23:42:00,
2013-11-16 18:47:00,45.1,43.2,29.85,South,180,5.0,7.0,93,0.00,,BKN023,0.00,VWS V13.01,2013-11-16 23:47:00,
2013-11-16 18:52:00,45.1,43.5,29.85,South,178,6.0,7.0,94,0.00,,BKN023,0.00,VWS V13.01,2013-11-16 23:52:00,
2013-11-16 18:57:00,45.2,43.6,29.85,South,183,7.0,9.0,94,0.00,,BKN023,0.00,VWS V13.01,2013-11-16 23:57:00,
2013-11-16 19:02:00,45.1,43.2,29.85,South,180,4.0,9.0,93,0.00,,OVC026,0.00,VWS V13.01,2013-11-17 00:02:00,
2013-11-16 19:07:00,45.2,43.6,29.85,South,173,5.0,9.0,94,0.00,,OVC026,0.00,VWS V13.01,2013-11-17 00:07:00,
2013-11-16 19:12:00,45.3,43.7,29.84,SSE,165,6.0,7.0,94,0.00,,OVC026,0.00,VWS V13.01,2013-11-17 00:12:00,
2013-11-16 19:17:00,45.4,43.8,29.84,SSE,167,5.0,8.0,94,0.00,,OVC026,0.00,VWS V13.01,2013-11-17 00:17:00,
2013-11-16 19:22:00,45.5,43.9,29.84,South,173,7.0,8.0,94,0.00,,OVC026,0.00,VWS V13.01,2013-11-17 00:22:00,
2013-11-16 19:27:00,45.8,44.2,29.84,SSW,194,6.0,10.0,94,0.00,,OVC026,0.00,VWS V13.01,2013-11-17 00:27:00,
2013-11-16 19:32:00,45.8,43.9,29.84,South,190,5.0,8.0,93,0.00,,OVC026,0.00,VWS V13.01,2013-11-17 00:32:00,
2013-11-16 19:37:00,45.7,43.8,29.84,South,185,4.0,8.0,93,0.00,,OVC026,0.00,VWS V13.01,2013-11-17 00:37:00,
2013-11-16 19:42:00,45.4,43.5,29.84,South,189,5.0,6.0,93,0.00,,OVC026,0.00,VWS V13.01,2013-11-17 00:42:00,
2013-11-16 19:47:00,45.3,43.4,29.84,South,188,3.0,6.0,93,0.00,,OVC026,0.00,VWS V13.01,2013-11-17 00:47:00,
2013-11-16 19:52:00,45.0,43.1,29.84,South,188,3.0,5.0,93,0.00,,OVC026,0.00,VWS V13.01,2013-11-17 00:52:00,
2013-11-16 19:57:00,44.9,43.3,29.83,South,179,4.0,6.0,94,0.00,,OVC026,0.00,VWS V13.01,2013-11-17 00:57:00,
2013-11-16 20:02:00,44.9,43.3,29.83,South,182,5.0,6.0,94,0.00,,OVC026,0.00,VWS V13.01,2013-11-17 01:02:00,
2013-11-16 20:07:00,44.9,43.3,29.83,South,182,6.0,7.0,94,0.00,,OVC026,0.00,VWS V13.01,2013-11-17 01:07:00,
2013-11-16 20:12:00,44.9,43.3,29.83,South,179,4.0,7.0,94,0.00,,OVC026,0.00,VWS V13.01,2013-11-17 01:12:00,
2013-11-16 20:17:00,44.7,43.1,29.83,South,180,4.0,6.0,94,0.00,,OVC026,0.00,VWS V13.01,2013-11-17 01:17:00,
2013-11-16 20:22:00,44.6,43.0,29.82,South,180,4.0,6.0,94,0.00,,OVC026,0.00,VWS V13.01,2013-11-17 01:22:00,
2013-11-16 20:27:00,44.6,43.0,29.82,South,180,4.0,6.0,94,0.00,,OVC026,0.00,VWS V13.01,2013-11-17 01:27:00,
2013-11-16 20:32:00,44.7,43.1,29.82,South,184,5.0,7.0,94,0.00,,OVC026,0.00,VWS V13.01,2013-11-17 01:32:00,
2013-11-16 20:37:00,44.6,43.0,29.82,South,185,5.0,7.0,94,0.00,,OVC026,0.00,VWS V13.01,2013-11-17 01:37:00,
2013-11-16 20:42:00,44.6,43.0,29.82,South,187,4.0,7.0,94,0.00,,OVC026,0.00,VWS V13.01,2013-11-17 01:42:00,
2013-11-16 20:47:00,44.5,42.9,29.82,South,188,4.0,6.0,94,0.00,,OVC026,0.00,VWS V13.01,2013-11-17 01:47:00,
2013-11-16 20:52:00,44.5,43.2,29.81,South,188,3.0,6.0,95,0.00,,OVC026,0.00,VWS V13.01,2013-11-17 01:52:00,
2013-11-16 20:57:00,44.4,42.8,29.81,South,188,2.0,3.0,94,0.00,,OVC026,0.00,VWS V13.01,2013-11-17 01:57:00,
2013-11-16 21:02:00,44.3,43.0,29.81,South,187,5.0,7.0,95,0.00,,OVC028,0.00,VWS V13.01,2013-11-17 02:02:00,
2013-11-16 21:07:00,44.7,43.4,29.81,South,186,5.0,8.0,95,0.00,,OVC028,0.00,VWS V13.01,2013-11-17 02:07:00,
2013-11-16 21:12:00,44.9,43.6,29.81,South,178,5.0,8.0,95,0.00,,OVC028,0.00,VWS V13.01,2013-11-17 02:12:00,
2013-11-16 21:17:00,45.0,43.7,29.80,South,171,6.0,8.0,95,0.00,,OVC028,0.00,VWS V13.01,2013-11-17 02:17:00,
2013-11-16 21:22:00,45.2,43.9,29.80,South,173,6.0,9.0,95,0.00,,OVC028,0.00,VWS V13.01,2013-11-17 02:22:00,
2013-11-16 21:27:00,45.2,43.6,29.79,South,172,7.0,9.0,94,0.00,,OVC028,0.00,VWS V13.01,2013-11-17 02:27:00,
2013-11-16 21:32:00,45.1,43.5,29.79,South,172,6.0,8.0,94,0.00,,OVC028,0.00,VWS V13.01,2013-11-17 02:32:00,
2013-11-16 21:37:00,45.2,43.9,29.79,South,176,7.0,9.0,95,0.00,,OVC028,0.00,VWS V13.01,2013-11-17 02:37:00,
2013-11-16 21:42:00,45.2,43.6,29.79,South,181,7.0,9.0,94,0.00,,OVC028,0.00,VWS V13.01,2013-11-17 02:42:00,
2013-11-16 21:47:00,45.1,43.5,29.79,SSE,165,8.0,9.0,94,0.00,,OVC028,0.00,VWS V13.01,2013-11-17 02:47:00,
2013-11-16 21:52:00,45.1,43.8,29.78,South,175,7.0,10.0,95,0.00,,OVC028,0.00,VWS V13.01,2013-11-17 02:52:00,
2013-11-16 21:57:00,45.2,43.9,29.77,South,174,7.0,10.0,95,0.00,,OVC028,0.00,VWS V13.01,2013-11-17 02:57:00,
2013-11-16 22:02:00,45.1,43.5,29.77,South,171,7.0,9.0,94,0.00,,-RA,0.00,VWS V13.01,2013-11-17 03:02:00,
2013-11-16 22:07:00,45.0,43.7,29.77,South,171,6.0,9.0,95,0.00,,-RA,0.00,VWS V13.01,2013-11-17 03:07:00,
2013-11-16 22:12:00,44.9,43.6,29.77,South,174,6.0,8.0,95,0.00,,-RA,0.00,VWS V13.01,2013-11-17 03:12:00,
2013-11-16 22:17:00,44.9,43.6,29.76,SSE,167,6.0,8.0,95,0.00,,-RA,0.00,VWS V13.01,2013-11-17 03:17:00,
2013-11-16 22:22:00,44.9,43.6,29.75,SSE,156,5.0,7.0,95,0.00,,-RA,0.00,VWS V13.01,2013-11-17 03:22:00,
2013-11-16 22:27:00,44.6,43.3,29.75,SSE,163,6.0,7.0,95,0.00,,-RA,0.00,VWS V13.01,2013-11-17 03:27:00,
2013-11-16 22:32:00,44.7,43.4,29.76,South,174,8.0,9.0,95,0.00,,-RA,0.00,VWS V13.01,2013-11-17 03:32:00,
2013-11-16 22:37:00,44.9,43.8,29.76,South,175,7.0,10.0,96,0.00,,-RA,0.00,VWS V13.01,2013-11-17 03:37:00,
2013-11-16 22:42:00,45.1,43.8,29.76,SSE,165,7.0,10.0,95,0.00,,-RA,0.00,VWS V13.01,2013-11-17 03:42:00,
2013-11-16 22:47:00,45.1,43.8,29.76,South,175,8.0,9.0,95,0.00,,-RA,0.00,VWS V13.01,2013-11-17 03:47:00,
2013-11-16 22:52:00,45.1,43.8,29.76,South,176,8.0,9.0,95,0.00,,-RA,0.00,VWS V13.01,2013-11-17 03:52:00,
2013-11-16 22:57:00,45.1,43.8,29.76,South,175,7.0,8.0,95,0.00,,-RA,0.00,VWS V13.01,2013-11-17 03:57:00,
2013-11-16 23:02:00,45.3,44.0,29.76,South,182,8.0,11.0,95,0.00,,OVC022,0.00,VWS V13.01,2013-11-17 04:02:00,
2013-11-16 23:07:00,45.3,44.0,29.77,SSW,192,7.0,10.0,95,0.00,,OVC022,0.00,VWS V13.01,2013-11-17 04:07:00,
2013-11-16 23:12:00,45.1,43.8,29.77,SSW,205,7.0,8.0,95,0.00,,OVC022,0.00,VWS V13.01,2013-11-17 04:12:00,
2013-11-16 23:17:00,44.5,43.2,29.77,SSW,213,5.0,7.0,95,0.00,,OVC022,0.00,VWS V13.01,2013-11-17 04:17:00,
2013-11-16 23:22:00,44.3,43.0,29.77,SSW,196,7.0,7.0,95,0.00,,OVC022,0.00,VWS V13.01,2013-11-17 04:22:00,
2013-11-16 23:27:00,44.5,43.4,29.78,SSW,202,7.0,9.0,96,0.00,,OVC022,0.00,VWS V13.01,2013-11-17 04:27:00,
2013-11-16 23:32:00,44.6,43.5,29.78,South,186,6.0,9.0,96,0.00,,OVC022,0.00,VWS V13.01,2013-11-17 04:32:00,
2013-11-16 23:37:00,44.9,43.8,29.77,South,188,8.0,10.0,96,0.01,,OVC022,0.01,VWS V13.01,2013-11-17 04:37:00,
2013-11-16 23:42:00,44.9,43.8,29.77,South,171,8.0,10.0,96,0.01,,OVC022,0.01,VWS V13.01,2013-11-17 04:42:00,
2013-11-16 23:47:00,45.0,43.9,29.76,SSE,168,7.0,9.0,96,0.01,,OVC022,0.01,VWS V13.01,2013-11-17 04:47:00,
2013-11-16 23:52:00,45.0,43.9,29.76,South,169,8.0,9.0,96,0.01,,OVC022,0.01,VWS V13.01,2013-11-17 04:52:00,
2013-11-16 23:57:00,45.0,43.9,29.77,South,180,8.0,11.0,96,0.01,,OVC022,0.01,VWS V13.01,2013-11-17 04:57:00,